• In India
  • List of Countries
  • For 7 days
  • Water Temperature
  • Satellite Maps
  • Weather Map
  • Weather Widgets
  • user-avatar
    Login

    Hourly Weather Cumbal

    Today, 11 December, Monday

    Time Temperature Precipitation Wind Pressure Humidity
    00:00 +8°C° 2.3 mm 1 mps 520 mmHg 91%
    01:00 +8°C° 0 mm 1 mps 521 mmHg 88%
    02:00 +8°C° 1.3 mm 1 mps 520 mmHg 88%
    03:00 +8°C° 1.3 mm 1 mps 520 mmHg 88%
    04:00 +8°C° 1.3 mm 1 mps 520 mmHg 89%
    05:00 +8°C° 0.8 mm 1 mps 520 mmHg 87%
    06:00 +8°C° 0.8 mm 1 mps 521 mmHg 85%
    07:00 +9°C° 0.8 mm 1 mps 521 mmHg 84%
    08:00 +10°C° 0.4 mm 1 mps 522 mmHg 78%
    09:00 +12°C° 0.4 mm 1 mps 523 mmHg 73%
    10:00 +13°C° 0.4 mm 2 mps 524 mmHg 67%
    11:00 +13°C° 0.3 mm 2 mps 523 mmHg 69%
    12:00 +13°C° 0.3 mm 2 mps 523 mmHg 70%
    13:00 +14°C° 0.3 mm 2 mps 523 mmHg 71%
    14:00 +13°C° 0.8 mm 2 mps 522 mmHg 75%
    15:00 +12°C° 0.8 mm 2 mps 521 mmHg 78%
    16:00 +10°C° 0.8 mm 2 mps 520 mmHg 81%
    17:00 +9°C° 0.7 mm 2 mps 520 mmHg 85%
    18:00 +8°C° 0.7 mm 2 mps 520 mmHg 89%
    19:00 +8°C° 0.7 mm 1 mps 520 mmHg 92%
    20:00 +8°C° 0.3 mm 1 mps 520 mmHg 92%
    21:00 +8°C° 0.3 mm 1 mps 520 mmHg 91%
    22:00 +8°C° 0.3 mm 1 mps 521 mmHg 91%
    23:00 +8°C° 0.2 mm 1 mps 521 mmHg 90%

    Tomorrow, 12 December, Tuesday

    Time Temperature Precipitation Wind Pressure Humidity
    00:00 +8°C° 0.2 mm 1 mps 521 mmHg 90%
    01:00 +8°C° 0.2 mm 1 mps 520 mmHg 89%
    02:00 +7°C° 0.1 mm 1 mps 520 mmHg 89%
    03:00 +7°C° 0.1 mm 1 mps 520 mmHg 89%
    04:00 +7°C° 0.1 mm 1 mps 519 mmHg 89%
    05:00 +7°C° 0 mm 1 mps 520 mmHg 87%
    06:00 +8°C° 0 mm 1 mps 520 mmHg 85%
    07:00 +8°C° 0 mm 1 mps 521 mmHg 83%
    08:00 +10°C° 0 mm 1 mps 522 mmHg 77%
    09:00 +10°C° 0 mm 2 mps 523 mmHg 71%
    10:00 +13°C° 0 mm 2 mps 524 mmHg 65%
    11:00 +13°C° 0.4 mm 2 mps 524 mmHg 67%
    12:00 +13°C° 0.4 mm 2 mps 523 mmHg 69%
    13:00 +12°C° 0.4 mm 3 mps 523 mmHg 71%
    14:00 +12°C° 1 mm 2 mps 522 mmHg 74%
    15:00 +10°C° 1 mm 2 mps 521 mmHg 78%
    16:00 +10°C° 1 mm 2 mps 520 mmHg 81%
    17:00 +9°C° 1.3 mm 2 mps 520 mmHg 85%
    18:00 +9°C° 1.3 mm 1 mps 520 mmHg 89%
    19:00 +8°C° 1.3 mm 1 mps 520 mmHg 93%
    20:00 +8°C° 0.9 mm 1 mps 520 mmHg 92%
    21:00 +8°C° 0.9 mm 1 mps 521 mmHg 91%
    22:00 +7°C° 0.9 mm 1 mps 521 mmHg 91%
    23:00 +7°C° 0.2 mm 1 mps 521 mmHg 90%

    Day after tomorrow, 13 December, Wednesday

    Time Temperature Precipitation Wind Pressure Humidity
    00:00 +7°C° 0.2 mm 1 mps 520 mmHg 90%
    01:00 +7°C° 0.2 mm 1 mps 520 mmHg 89%
    02:00 +7°C° 0 mm 1 mps 520 mmHg 89%
    03:00 +7°C° 0 mm 1 mps 520 mmHg 88%
    04:00 +7°C° 0 mm 1 mps 519 mmHg 88%
    05:00 +7°C° 0 mm 1 mps 520 mmHg 85%
    06:00 +8°C° 0 mm 1 mps 521 mmHg 82%
    07:00 +8°C° 0 mm 1 mps 521 mmHg 80%
    08:00 +10°C° 0 mm 1 mps 522 mmHg 71%
    09:00 +12°C° 0 mm 1 mps 524 mmHg 61%
    10:00 +14°C° 0 mm 1 mps 525 mmHg 52%
    11:00 +14°C° 0.1 mm 2 mps 525 mmHg 54%
    12:00 +15°C° 0.1 mm 2 mps 524 mmHg 55%
    13:00 +14°C° 0.1 mm 3 mps 524 mmHg 57%
    14:00 +13°C° 0.4 mm 3 mps 523 mmHg 61%
    15:00 +14°C° 0.4 mm 2 mps 522 mmHg 65%
    16:00 +13°C° 0.4 mm 2 mps 522 mmHg 69%
    17:00 +10°C° 0.3 mm 2 mps 521 mmHg 76%
    18:00 +10°C° 0.3 mm 1 mps 521 mmHg 84%
    19:00 +8°C° 0.3 mm 1 mps 520 mmHg 91%
    20:00 +8°C° 0.1 mm 1 mps 520 mmHg 90%
    21:00 +8°C° 0.1 mm 1 mps 521 mmHg 90%
    22:00 +8°C° 0.1 mm 1 mps 521 mmHg 89%
    23:00 +8°C° 0 mm 1 mps 520 mmHg 89%

    14 December, Thursday

    Time Temperature Precipitation Wind Pressure Humidity
    00:00 +7°C° 0 mm 1 mps 520 mmHg 89%
    01:00 +7°C° 0 mm 1 mps 519 mmHg 89%
    02:00 +7°C° 0 mm 1 mps 519 mmHg 89%
    03:00 +6°C° 0 mm 1 mps 519 mmHg 89%
    04:00 +6°C° 0 mm 1 mps 518 mmHg 89%
    05:00 +6°C° 0 mm 1 mps 519 mmHg 86%
    06:00 +6°C° 0 mm 2 mps 520 mmHg 84%
    07:00 +6°C° 0 mm 2 mps 520 mmHg 81%
    08:00 +9°C° 0 mm 2 mps 522 mmHg 74%
    09:00 +12°C° 0 mm 2 mps 523 mmHg 67%
    10:00 +14°C° 0 mm 2 mps 524 mmHg 59%
    11:00 +14°C° 0.1 mm 2 mps 524 mmHg 62%
    12:00 +13°C° 0.1 mm 2 mps 523 mmHg 65%
    13:00 +13°C° 0.1 mm 2 mps 522 mmHg 68%
    14:00 +13°C° 0.2 mm 2 mps 522 mmHg 69%
    15:00 +13°C° 0.2 mm 1 mps 521 mmHg 71%
    16:00 +12°C° 0.2 mm 1 mps 521 mmHg 72%
    17:00 +11°C° 0.1 mm 1 mps 521 mmHg 79%
    18:00 +10°C° 0.1 mm 1 mps 520 mmHg 86%
    19:00 +8°C° 0.1 mm 1 mps 520 mmHg 93%
    20:00 +8°C° 0.1 mm 1 mps 520 mmHg 92%
    21:00 +8°C° 0.1 mm 1 mps 520 mmHg 91%
    22:00 +8°C° 0.1 mm 1 mps 521 mmHg 90%
    23:00 +6°C° 0 mm 2 mps 520 mmHg 89%

    15 December, Friday

    Time Temperature Precipitation Wind Pressure Humidity
    00:00 +6°C° 0 mm 2 mps 520 mmHg 87%
    01:00 +6°C° 0 mm 2 mps 519 mmHg 85%
    02:00 +6°C° 0 mm 2 mps 519 mmHg 85%
    03:00 +7°C° 0 mm 1 mps 519 mmHg 85%
    04:00 +7°C° 0 mm 1 mps 519 mmHg 85%
    05:00 +7°C° 0 mm 1 mps 519 mmHg 84%
    06:00 +8°C° 0 mm 1 mps 520 mmHg 83%
    07:00 +8°C° 0 mm 1 mps 521 mmHg 83%
    08:00 +9°C° 0 mm 2 mps 522 mmHg 74%
    09:00 +12°C° 0 mm 2 mps 523 mmHg 64%
    10:00 +14°C° 0 mm 2 mps 525 mmHg 55%
    11:00 +14°C° 0.1 mm 2 mps 524 mmHg 54%
    12:00 +15°C° 0.1 mm 2 mps 524 mmHg 53%
    13:00 +14°C° 0.1 mm 3 mps 524 mmHg 52%
    14:00 +14°C° 0.1 mm 2 mps 523 mmHg 55%
    15:00 +14°C° 0.1 mm 2 mps 522 mmHg 58%
    16:00 +13°C° 0.1 mm 2 mps 521 mmHg 61%
    17:00 +11°C° 0.1 mm 1 mps 521 mmHg 68%
    18:00 +9°C° 0.1 mm 1 mps 520 mmHg 75%
    19:00 +8°C° 0.1 mm 1 mps 520 mmHg 81%
    20:00 +7°C° 0 mm 1 mps 520 mmHg 79%
    21:00 +7°C° 0 mm 1 mps 520 mmHg 77%
    22:00 +5°C° 0 mm 2 mps 520 mmHg 75%
    23:00 +5°C° 0 mm 2 mps 519 mmHg 72%

    16 December, Saturday

    Time Temperature Precipitation Wind Pressure Humidity
    00:00 +5°C° 0 mm 2 mps 519 mmHg 70%
    01:00 +5°C° 0 mm 2 mps 519 mmHg 67%
    02:00 +6°C° 0 mm 1 mps 518 mmHg 66%
    03:00 +5°C° 0 mm 1 mps 518 mmHg 65%
    04:00 +5°C° 0 mm 1 mps 518 mmHg 64%
    05:00 +6°C° 0 mm 1 mps 519 mmHg 63%
    06:00 +7°C° 0 mm 1 mps 520 mmHg 62%
    07:00 +6°C° 0 mm 2 mps 520 mmHg 62%
    08:00 +9°C° 0 mm 2 mps 522 mmHg 58%
    09:00 +12°C° 0 mm 2 mps 523 mmHg 54%
    10:00 +15°C° 0 mm 2 mps 525 mmHg 50%
    11:00 +14°C° 0.1 mm 2 mps 524 mmHg 54%
    12:00 +14°C° 0.1 mm 2 mps 524 mmHg 58%
    13:00 +14°C° 0.1 mm 2 mps 523 mmHg 62%
    14:00 +14°C° 0.4 mm 2 mps 522 mmHg 64%
    15:00 +13°C° 0.4 mm 2 mps 522 mmHg 67%
    16:00 +13°C° 0.4 mm 1 mps 521 mmHg 69%
    17:00 +11°C° 0.1 mm 1 mps 520 mmHg 76%
    18:00 +10°C° 0.1 mm 1 mps 520 mmHg 83%
    19:00 +8°C° 0.1 mm 1 mps 519 mmHg 89%
    20:00 +8°C° 0 mm 1 mps 519 mmHg 88%
    21:00 +8°C° 0 mm 1 mps 520 mmHg 87%
    22:00 +7°C° 0 mm 2 mps 520 mmHg 87%
    23:00 +7°C° 0 mm 2 mps 519 mmHg 86%
    Show more